| time (UTC) | temp C | wind direction | speed KPH | gust KPH | rain 1hr cm | rain 24hr cm | rain mn cm | humidity % | barometer mb |
| 20260502151530 | 12 | 157 | 0.0 | 0.0 | 0.00 | 0.00 | 0.00 | 91 | 1017.0 |
| 20260502140106 | 8 | 157 | 0.0 | 0.0 | 0.00 | 0.00 | 0.00 | 92 | 1016.4 |
| 20260502130106 | 8 | 170 | 1.6 | 6.4 | 0.00 | 0.00 | 0.00 | 90 | 1015.8 |
| 20260502123031 | 9 | 180 | 0.0 | 0.0 | 0.00 | 0.00 | 0.00 | 89 | 1016.0 |
| 20260502121527 | 10 | 180 | 0.0 | 0.0 | 0.00 | 0.00 | 0.00 | 88 | 1016.0 |
| 20260502114532 | 10 | 175 | 0.0 | 3.2 | 0.00 | 0.03 | 0.00 | 88 | 1016.3 |
| 20260502113031 | 10 | 159 | 3.2 | 6.4 | 0.00 | 0.03 | 0.00 | 88 | 1016.3 |
| 20260502111529 | 10 | 149 | 3.2 | 6.4 | 0.00 | 0.03 | 0.00 | 87 | 1016.3 |
| 20260502110106 | 11 | 188 | 0.0 | 6.4 | 0.00 | 0.03 | 0.00 | 87 | 1016.4 |
| 20260502103031 | 11 | 152 | 3.2 | 6.4 | 0.00 | 0.03 | 0.00 | 87 | 1016.7 |
| 20260502101530 | 11 | 121 | 1.6 | 4.8 | 0.00 | 0.03 | 0.00 | 88 | 1016.8 |
| 20260502091532 | 10 | 112 | 0.0 | 4.8 | 0.00 | 0.03 | 0.00 | 86 | 1017.0 |
| 20260502071531 | 11 | 156 | 4.8 | 8.0 | 0.00 | 0.03 | 0.00 | 83 | 1017.2 |
| 20260502070030 | 11 | 157 | 1.6 | 4.8 | 0.00 | 0.03 | 0.00 | 83 | 1017.2 |
| 20260502064536 | 12 | 189 | 1.6 | 4.8 | 0.00 | 0.03 | 0.03 | 82 | 1017.3 |
| 20260502063029 | 12 | 122 | 0.0 | 4.8 | 0.00 | 0.03 | 0.03 | 82 | 1017.3 |
| 20260502060032 | 12 | 169 | 1.6 | 6.4 | 0.00 | 0.03 | 0.03 | 79 | 1017.1 |
| 20260502054529 | 13 | 157 | 3.2 | 6.4 | 0.00 | 0.03 | 0.03 | 77 | 1017.1 |
| 20260502051533 | 13 | 141 | 3.2 | 6.4 | 0.00 | 0.03 | 0.03 | 74 | 1017.1 |
| 20260502050042 | 14 | 176 | 1.6 | 6.4 | 0.00 | 0.03 | 0.03 | 72 | 1016.9 |
| 20260502044531 | 15 | 67 | 1.6 | 9.7 | 0.00 | 0.03 | 0.03 | 70 | 1016.6 |
| 20260502043031 | 15 | 81 | 3.2 | 6.4 | 0.00 | 0.03 | 0.03 | 69 | 1016.5 |
| 20260502041531 | 16 | 88 | 3.2 | 6.4 | 0.00 | 0.03 | 0.03 | 67 | 1016.4 |
| 20260502040034 | 16 | 118 | 4.8 | 12.9 | 0.00 | 0.03 | 0.03 | 65 | 1016.0 |
| 20260502034539 | 17 | 272 | 3.2 | 8.0 | 0.00 | 0.03 | 0.03 | 63 | 1015.9 |
| 20260502033144 | 17 | 61 | 6.4 | 9.7 | 0.00 | 0.03 | 0.03 | 61 | 1016.0 |
| 20260502031533 | 18 | 42 | 1.6 | 8.0 | 0.00 | 0.03 | 0.03 | 58 | 1016.0 |
| 20260502024534 | 19 | 221 | 1.6 | 9.7 | 0.00 | 0.03 | 0.03 | 53 | 1015.4 |
| 20260502023029 | 20 | 261 | 3.2 | 12.9 | 0.00 | 0.03 | 0.03 | 50 | 1015.0 |
| 20260502021530 | 21 | 279 | 0.0 | 8.0 | 0.00 | 0.03 | 0.03 | 50 | 1014.8 |
| 20260502020030 | 22 | 250 | 1.6 | 4.8 | 0.00 | 0.03 | 0.03 | 47 | 1014.8 |
| 20260502013031 | 23 | 309 | 0.0 | 3.2 | 0.00 | 0.03 | 0.03 | 38 | 1014.8 |
| 20260502011529 | 24 | 308 | 1.6 | 6.4 | 0.00 | 0.03 | 0.03 | 35 | 1014.8 |
| 20260502010107 | 25 | 3 | 3.2 | 9.7 | 0.00 | 0.03 | 0.03 | 35 | 1014.7 |
| 20260502004534 | 25 | 322 | 1.6 | 6.4 | 0.00 | 0.03 | 0.03 | 33 | 1014.8 |
| 20260502003029 | 25 | 11 | 1.6 | 8.0 | 0.00 | 0.03 | 0.03 | 33 | 1015.0 |
| 20260502000033 | 24 | 8 | 1.6 | 8.0 | 0.00 | 0.03 | 0.03 | 37 | 1015.2 |
| 20260501234530 | 23 | 33 | 3.2 | 11.3 | 0.00 | 0.03 | 0.03 | 37 | 1015.4 |
| 20260501231606 | 25 | 3 | 3.2 | 11.3 | 0.00 | 0.03 | 0.03 | 35 | 1015.6 |
| 20260501230031 | 25 | 52 | 1.6 | 14.5 | 0.00 | 0.03 | 0.03 | 36 | 1015.8 |
| 20260501224529 | 25 | 48 | 4.8 | 14.5 | 0.00 | 0.03 | 0.03 | 36 | 1016.0 |
| 20260501223031 | 25 | 44 | 4.8 | 16.1 | 0.00 | 0.03 | 0.03 | 37 | 1016.2 |
| 20260501221529 | 25 | 44 | 6.4 | 14.5 | 0.00 | 0.03 | 0.03 | 38 | 1016.4 |
| 20260501220035 | 24 | 1 | 6.4 | 14.5 | 0.00 | 0.03 | 0.03 | 39 | 1016.6 |
| 20260501214531 | 23 | 12 | 3.2 | 12.9 | 0.00 | 0.03 | 0.03 | 40 | 1016.8 |
| 20260501213029 | 22 | 20 | 6.4 | 14.5 | 0.00 | 0.03 | 0.03 | 41 | 1016.9 |
| 20260501211529 | 22 | 59 | 4.8 | 12.9 | 0.00 | 0.03 | 0.03 | 42 | 1017.0 |
| 20260501210104 | 22 | 51 | 3.2 | 11.3 | 0.00 | 0.03 | 0.03 | 41 | 1017.1 |
| 20260501204532 | 22 | 1 | 1.6 | 8.0 | 0.00 | 0.03 | 0.03 | 41 | 1017.3 |
| 20260501201531 | 22 | 1 | 3.2 | 9.7 | 0.00 | 0.03 | 0.03 | 40 | 1017.6 |
| 20260501200108 | 22 | 14 | 3.2 | 11.3 | 0.00 | 0.03 | 0.03 | 40 | 1017.8 |
| 20260501194531 | 21 | 39 | 1.6 | 11.3 | 0.00 | 0.03 | 0.03 | 40 | 1017.9 |
| 20260501193028 | 21 | 342 | 1.6 | 9.7 | 0.00 | 0.03 | 0.03 | 40 | 1018.0 |
| 20260501191606 | 22 | 295 | 3.2 | 9.7 | 0.00 | 0.03 | 0.03 | 38 | 1018.1 |
| 20260501190031 | 22 | 265 | 3.2 | 9.7 | 0.00 | 0.03 | 0.03 | 39 | 1018.2 |
| 20260501184531 | 21 | 321 | 4.8 | 9.7 | 0.00 | 0.03 | 0.03 | 39 | 1018.3 |
| 20260501183029 | 21 | 26 | 1.6 | 8.0 | 0.00 | 0.03 | 0.03 | 39 | 1018.5 |
| 20260501181607 | 20 | 55 | 0.0 | 6.4 | 0.00 | 0.03 | 0.03 | 38 | 1018.6 |
| 20260501180041 | 20 | 359 | 1.6 | 6.4 | 0.00 | 0.03 | 0.03 | 37 | 1018.6 |
| 20260501174602 | 21 | 299 | 1.6 | 11.3 | 0.00 | 0.03 | 0.03 | 37 | 1018.7 |
| 20260501173145 | 20 | 24 | 1.6 | 6.4 | 0.00 | 0.03 | 0.03 | 38 | 1018.8 |
| 20260501171529 | 20 | 55 | 0.0 | 6.4 | 0.00 | 0.03 | 0.03 | 38 | 1018.9 |
| 20260501170029 | 20 | 26 | 1.6 | 6.4 | 0.00 | 0.03 | 0.03 | 39 | 1019.0 |
| 20260501164531 | 18 | 259 | 0.0 | 3.2 | 0.00 | 0.03 | 0.03 | 42 | 1019.2 |
| 20260501163031 | 18 | 359 | 1.6 | 6.4 | 0.00 | 0.03 | 0.03 | 45 | 1019.3 |
| 20260501161529 | 17 | 358 | 0.0 | 3.2 | 0.00 | 0.03 | 0.03 | 49 | 1019.5 |
| 20260501160031 | 16 | 229 | 0.0 | 4.8 | 0.00 | 0.03 | 0.03 | 54 | 1019.6 |